User: anonymous   Login
Location: Fort Wayne
(41.1310°N, 85.1290°W)
Time: 05:12:12
(UTC-05:00)
Language:

Meteor 2-10 Rocket - Orbit

View from above orbital plane
View from above orbital plane
View from above satellite
View from above satellite

Ground track
Ground track

The orbit data is extracted from the following two-line orbital elements,

1 14453U 83109B   18054.53274680 +.00000033 +00000-0 +77355-5 0  9999
2 14453 081.1660 213.4408 0105795 056.8705 304.2571 14.24690226783243
Epoch (UTC): 23 February 2018 12:47:09
Eccentricity: 0.0105795
inclination: 81.1660°
perigee height: 733 km
apogee height: 885 km
right ascension of ascending node: 213.4408°
argument of perigee: 56.8705°
revolutions per day: 14.24690226
mean anomaly at epoch: 304.2571°
orbit number at epoch: 78324

The dashed part of the orbit path shows where the satellite is in the earth's shadow,  

DLR